National Weather Service Hourly Weather Roundup
NOAA NWS Hourly Roundups by Site
NOAA NWS Hourly Roundups by Site
Regional Weather Roundup for Sacramento, CA

To Select Another Site Choose from List

Select Site:  

000
ASUS46 KSTO 060415
RWRCA

NORTHERN AND CENTRAL CA REGIONAL WEATHER ROUNDUP
NATIONAL WEATHER SERVICE SACRAMENTO CA
900 PM PDT SUN APR 05 2020

NOTE: FAIR INDICATES FEW OR NO CLOUDS BELOW 12,000 FEET WITH NO
SIGNIFICANT WEATHER AND/OR OBSTRUCTIONS TO VISIBILITY.

CAZ001-003-060500-
NORTHWEST AREA

CITY           SKY/WX    TMP DP  RH WIND       PRES   REMARKS
CRESCENT CITY  LGT RAIN  47  43  86 SE9       29.69R
UKIAH          MOCLDY    47  35  63 CALM      29.70R
$$

CAZ006-505>513-060500-
BAY AREA

CITY           SKY/WX    TMP DP  RH WIND       PRES   REMARKS
SANTA ROSA     FAIR      47  40  76 W6        29.70R
SAN RAFAEL     N/A       MM  MM  MM MISG
NAPA           FAIR      48  40  73 W8        29.70R
CONCORD        CLOUDY    51  41  68 W3        29.71R
OAKLAND CITY   N/A       52  MM  MM MISG
OAKLAND        CLOUDY    53  42  66 W9        29.71R
SAN FRAN CITY  N/A       51  MM  66 MISG
SAN FRAN ARPT  MOCLDY    52  41  66 NW9       29.71R
LIVERMORE      CLOUDY    48  45  89 CALM      29.70R
HAYWARD        MOCLDY    51  41  68 W7        29.71R
SAN JOSE ARPT  CLOUDY    50  44  80 CALM      29.71R
$$
CAZ034-037-514>518-060500-
CENTRAL COAST

CITY           SKY/WX    TMP DP  RH WIND       PRES   REMARKS
WATSONVILLE    CLOUDY    49  32  52 S5        29.73R
SALINAS        RAIN      48  45  89 NE6       29.73R
MONTEREY       RAIN      51  47  86 SE5       29.72R
SAN LUIS OBISP LGT RAIN  54  51  90 S15G21    29.73R
SANTA MARIA    HVY RAIN  53  50  89 SE17      29.74S FOG
$$
CAZ015-016-060500-
NORTHERN SACRAMENTO VALLEY

CITY           SKY/WX    TMP DP  RH WIND       PRES   REMARKS
REDDING        CLOUDY    46  40  79 NE7       29.65R
RED BLUFF      FAIR      50  39  66 SE17      29.65R
$$
CAZ016>018-060500-
SOUTHERN SACRAMENTO VALLEY

CITY           SKY/WX    TMP DP  RH WIND       PRES   REMARKS
AUBURN         CLOUDY    39  37  93 E12G18    29.71R WCI  32
BEALE AFB      MOCLDY    46  40  79 E10       29.70R
LINCOLN        CLOUDY    45  39  81 E15G21    29.71R
MARYSVILLE     CLOUDY    46  40  79 E14       29.72R
SAC INTL ARPT  MOCLDY    49  45  86 E13       29.70R
MATHER AIRPORT NOT AVBL
DOWNTOWN SAC   N/A       49  MM  MM MISG
SAC EXEC ARPT  CLOUDY    50  46  86 E5        29.71R
VACAVILLE      FAIR      50  38  63 SW3       29.70R
TRAVIS AFB     FAIR      49  38  66 SW6       29.70R
$$
CAZ019>021-060500-
SAN JOAQUIN VALLEY

CITY           SKY/WX    TMP DP  RH WIND       PRES   REMARKS
STOCKTON       LGT RAIN  51  48  89 E6        29.71R
MODESTO        LGT RAIN  50  47  89 E8        29.71R
MERCED         LGT RAIN  49  46  90 VRB3      29.72R
LEMOORE        CLOUDY    56  45  66 S15G21    29.71R
FRESNO         LGT RAIN  54  50  86 E10       29.72S
HANFORD        CLOUDY    53  50  89 SE7       29.73R
PORTERVILLE    RAIN      54  53  97 E8        29.77R
BAKERSFIELD    LGT RAIN  56  50  80 NE8       29.74R
$$
CAZ011-012-071-060500-
NORTHERN MOUNTAINS

CITY           SKY/WX    TMP DP  RH WIND       PRES   REMARKS
YREKA          CLOUDY    41  36  82 S3        29.63R
MOUNT SHASTA   FLURRIES  33  31  92 CALM      29.61R
ALTURAS        CLOUDY    38  27  64 S14       29.61R WCI  30
$$
CAZ011-012-071-060500-
SIERRA NEVADA MTNS

CITY           SKY/WX    TMP DP  RH WIND       PRES   REMARKS
BLUE CANYON    SNOW      29  27  92 VRB5      29.66R VSB 1/2 WCI  24
TRUCKEE        FLURRIES  30  30 100 CALM      29.62S
TAHOE VLY ARPT LGT SNOW  30  29  96 CALM      29.60S FOG
MAMMOTH LAKES  SNOW      30  30 100 CALM      29.67R VSB 1/2
$$


 

View Past Reports for Sacramento, CA.

Products Courtesy of NOAA-NWS
NWS Information Parsing Script by Ken True at Saratoga Weather - Script by SE Lincoln Weather.

powered by Cumulus v1.9.3 (1059)
Ambient Weather VWS v14.00
Top Website Map Copyright © 2007 - 2020 Foresthillweather.com Never base important decisions on this or any weather information obtained from the Internet